Vorticity
3 14 2 2 13 8 3 -0 7 -2 -24 9 4 3 15 24 8 -11 14 8 6 11 5 2 4 0 -1 -1 0 3 2 5
2 4 2 10 13 8 -3 -5 -8 7 3 3 3 22 9 -15 8 -2 14 5 6 4 3 0 -1 1 2 1 -1 -1 2 -1
2 7 10 9 1 -3 -1 1 3 4 3 7 11 -3 -10 9 14 6 6 6 3 -1 1 1 1 1 -1 1 1 1 3 1
8 7 0 7 0 2 -2 2 5 3 5 1 6 13 12 9 7 9 6 2 0 1 0 0 1 3 2 3 6 4 6 10
3 0 5 -1 3 -12 -10 6 8 10 2 13 13 12 9 9 5 2 1 1 2 2 1 3 4 4 4 5 6 8 11 10
-4 -9 4 12 -4 3 6 9 -0 20 23 15 13 10 7 5 5 3 2 2 2 5 5 4 4 4 7 10 11 10 10 12
4 11 8 3 13 1 13 -0 21 14 11 10 8 5 6 2 1 3 4 3 3 3 3 5 7 10 11 11 11 11 10 8
11 16 -1 -4 -1 13 2 21 21 14 12 9 6 2 2 2 3 1 1 3 3 5 5 6 9 12 8 11 11 11 12 22
23 -0 -13 12 14 12 21 18 5 4 1 1 -0 1 3 4 1 2 3 5 6 5 6 6 8 11 8 9 17 19 38 23
6 13 26 15 9 24 6 6 5 2 2 1 3 4 4 2 4 2 5 5 3 5 7 11 11 11 11 23 37 23 21 22
15 16 8 12 7 5 6 5 2 3 1 4 3 3 3 4 3 7 6 3 5 6 11 10 11 15 29 33 12 20 10 11
10 12 10 7 1 4 7 4 3 2 4 2 3 2 4 3 10 5 6 6 5 11 11 10 21 33 25 25 14 30 19 22
7 6 7 4 7 7 5 3 3 4 4 3 4 4 2 3 4 5 6 5 10 12 9 28 33 23 21 19 32 5 16 33
6 6 6 8 7 4 3 4 6 5 3 4 3 4 3 3 5 7 6 8 13 7 28 39 31 26 33 17 12 13 9 9
7 8 8 5 3 4 4 7 8 4 5 4 2 3 3 6 5 7 6 17 8 27 39 38 33 29 23 12 7 5 13 11
10 9 8 4 4 4 8 7 3 5 4 2 4 4 9 8 5 7 17 7 26 45 40 29 22 20 4 5 7 9 10 10
7 8 9 8 5 7 4 3 4 5 0 1 5 10 12 5 7 18 4 26 44 35 19 15 10 6 6 5 10 10 7 18
7 10 9 7 8 5 3 4 4 2 1 4 9 11 8 6 17 6 24 42 37 16 11 10 5 2 4 12 11 6 22 11
7 8 10 8 6 5 4 3 2 3 5 10 11 8 7 13 6 21 38 34 28 10 9 10 5 2 3 12 7 16 14 17
Height
5811 5810 5809 5808 5803 5802 5800 5798 5795 5791 5786 5784 5781 5777 5774 5769 5766 5761 5756 5751 5747 5742 5739 5736 5732 5728 5725 5722 5718 5714 5709 5704
5808 5807 5806 5803 5801 5798 5797 5793 5788 5784 5782 5777 5773 5769 5765 5761 5756 5750 5745 5739 5734 5731 5727 5722 5717 5713 5708 5704 5699 5695 5690 5685
5802 5801 5799 5797 5797 5794 5791 5787 5782 5778 5774 5770 5766 5761 5758 5752 5746 5740 5734 5729 5724 5718 5712 5707 5701 5696 5690 5685 5679 5674 5668 5660
5799 5797 5795 5794 5791 5789 5785 5781 5775 5769 5765 5761 5757 5751 5745 5740 5734 5729 5724 5719 5713 5706 5699 5692 5686 5679 5672 5665 5658 5650 5643 5636
5793 5793 5791 5789 5785 5781 5777 5772 5766 5760 5756 5750 5744 5739 5733 5728 5722 5717 5712 5706 5700 5693 5687 5680 5672 5665 5657 5648 5639 5630 5621 5614
5791 5788 5785 5781 5778 5775 5771 5766 5760 5755 5749 5745 5741 5734 5728 5722 5717 5711 5706 5700 5694 5686 5676 5666 5655 5643 5632 5622 5613 5604 5595 5587
5784 5782 5779 5774 5771 5768 5762 5756 5751 5746 5741 5737 5732 5727 5722 5718 5712 5704 5696 5686 5676 5665 5654 5643 5632 5620 5609 5597 5586 5575 5565 5557
5779 5776 5772 5767 5761 5759 5756 5751 5746 5740 5735 5731 5726 5720 5714 5706 5697 5687 5677 5666 5655 5645 5634 5622 5608 5595 5584 5572 5560 5548 5537 5526
5772 5768 5765 5760 5756 5752 5748 5744 5739 5733 5727 5721 5715 5708 5700 5691 5682 5672 5662 5650 5638 5625 5611 5597 5583 5571 5559 5548 5535 5522 5512 5501
5766 5762 5756 5751 5747 5744 5740 5735 5730 5724 5717 5711 5704 5695 5686 5677 5666 5656 5644 5631 5618 5604 5590 5577 5563 5549 5534 5520 5507 5497 5489 5481
5754 5750 5745 5741 5737 5732 5728 5723 5717 5710 5703 5696 5689 5680 5670 5660 5650 5639 5625 5612 5599 5585 5568 5554 5538 5522 5507 5494 5486 5477 5471 5464
5745 5740 5736 5733 5728 5722 5716 5710 5703 5697 5690 5682 5673 5664 5655 5645 5632 5620 5608 5594 5579 5564 5547 5529 5512 5497 5486 5476 5468 5462 5455 5449
5737 5730 5725 5721 5716 5711 5706 5698 5692 5685 5677 5668 5659 5650 5640 5630 5618 5605 5591 5575 5556 5539 5525 5506 5490 5478 5469 5461 5455 5449 5441 5435
5731 5726 5721 5716 5709 5703 5696 5690 5683 5675 5667 5658 5649 5638 5627 5615 5600 5582 5565 5549 5534 5517 5500 5484 5472 5462 5455 5450 5445 5437 5430 5422
5724 5719 5714 5707 5701 5695 5688 5682 5674 5665 5656 5645 5633 5621 5606 5590 5576 5560 5543 5526 5511 5495 5480 5468 5458 5450 5446 5442 5434 5426 5418 5410
5717 5712 5706 5699 5691 5684 5677 5670 5661 5651 5640 5629 5616 5601 5586 5572 5556 5540 5522 5505 5491 5477 5466 5457 5449 5444 5438 5432 5424 5416 5409 5400
5707 5701 5694 5686 5679 5672 5665 5656 5646 5636 5625 5613 5598 5583 5568 5553 5538 5521 5505 5489 5474 5464 5457 5450 5443 5437 5431 5423 5415 5408 5399 5390
5695 5688 5681 5674 5667 5659 5651 5641 5631 5621 5609 5595 5581 5566 5550 5534 5519 5504 5488 5473 5462 5455 5449 5442 5436 5430 5423 5416 5408 5398 5388 5378
5684 5677 5669 5662 5654 5646 5637 5627 5617 5605 5591 5577 5563 5549 5533 5517 5502 5487 5472 5461 5453 5447 5442 5435 5429 5423 5416 5407 5399 5389 5379 5370